When you browse on this site, cookies collect data to enhance your experience and personalize the content and advertising you see.
Visit our Privacy Policy to learn more. By continuing to use the site, you agree to this use of cookies and data.

Hourly Weather Barra

Today, 8 August, Saturday

Time Temperature Precipitation Wind Pressure Humidity
00:00 +24°C° 0 mm 1 mps 748 mmHg 92%
01:00 +24°C° 0 mm 1 mps 748 mmHg 91%
02:00 +24°C° 0.6 mm 1 mps 748 mmHg 91%
03:00 +24°C° 0.6 mm 1 mps 747 mmHg 91%
04:00 +24°C° 0 mm 1 mps 748 mmHg 90%
05:00 +24°C° 0.1 mm 1 mps 748 mmHg 90%
06:00 +23°C° 0.1 mm 1 mps 749 mmHg 90%
07:00 +23°C° 0.1 mm 1 mps 749 mmHg 89%
08:00 +24°C° 0 mm 2 mps 749 mmHg 79%
09:00 +26°C° 0 mm 2 mps 750 mmHg 69%
10:00 +27°C° 0 mm 3 mps 750 mmHg 61%
11:00 +28°C° 0 mm 3 mps 749 mmHg 56%
12:00 +29°C° 0 mm 3 mps 749 mmHg 52%
13:00 +30°C° 0 mm 3 mps 748 mmHg 47%
14:00 +29°C° 0 mm 3 mps 748 mmHg 48%
15:00 +28°C° 0 mm 3 mps 748 mmHg 48%
16:00 +27°C° 0 mm 3 mps 747 mmHg 51%
17:00 +26°C° 0 mm 2 mps 748 mmHg 56%
18:00 +24°C° 0 mm 2 mps 748 mmHg 62%
19:00 +21°C° 0 mm 2 mps 749 mmHg 67%
20:00 +22°C° 0 mm 1 mps 749 mmHg 67%
21:00 +22°C° 0 mm 1 mps 749 mmHg 67%
22:00 +22°C° 0 mm 1 mps 749 mmHg 66%
23:00 +21°C° 0 mm 1 mps 749 mmHg 66%

Tomorrow, 9 August, Sunday

Time Temperature Precipitation Wind Pressure Humidity
00:00 +21°C° 0 mm 1 mps 750 mmHg 65%
01:00 +21°C° 0 mm 1 mps 750 mmHg 65%
02:00 +20°C° 0 mm 2 mps 749 mmHg 63%
03:00 +21°C° 0 mm 2 mps 749 mmHg 61%
04:00 +21°C° 0 mm 2 mps 749 mmHg 59%
05:00 +21°C° 0 mm 2 mps 749 mmHg 59%
06:00 +21°C° 0 mm 2 mps 749 mmHg 59%
07:00 +20°C° 0 mm 2 mps 750 mmHg 59%
08:00 +23°C° 0 mm 2 mps 750 mmHg 56%
09:00 +24°C° 0 mm 1 mps 750 mmHg 53%
10:00 +25°C° 0 mm 1 mps 750 mmHg 50%
11:00 +26°C° 0 mm 2 mps 750 mmHg 48%
12:00 +26°C° 0 mm 2 mps 749 mmHg 46%
13:00 +27°C° 0 mm 3 mps 748 mmHg 45%
14:00 +26°C° 0 mm 3 mps 748 mmHg 47%
15:00 +26°C° 0 mm 3 mps 748 mmHg 50%
16:00 +25°C° 0 mm 3 mps 747 mmHg 52%
17:00 +24°C° 0 mm 2 mps 748 mmHg 56%
18:00 +22°C° 0 mm 1 mps 748 mmHg 60%
19:00 +21°C° 0 mm 1 mps 749 mmHg 64%
20:00 +21°C° 0 mm 1 mps 749 mmHg 65%
21:00 +20°C° 0 mm 1 mps 749 mmHg 67%
22:00 +20°C° 0 mm 1 mps 750 mmHg 68%
23:00 +19°C° 0 mm 1 mps 750 mmHg 70%

Day after tomorrow, 10 August, Monday

Time Temperature Precipitation Wind Pressure Humidity
00:00 +19°C° 0 mm 1 mps 750 mmHg 71%
01:00 +17°C° 0 mm 2 mps 750 mmHg 73%
02:00 +17°C° 0 mm 2 mps 749 mmHg 73%
03:00 +17°C° 0 mm 2 mps 749 mmHg 73%
04:00 +16°C° 0 mm 2 mps 749 mmHg 73%
05:00 +16°C° 0 mm 2 mps 750 mmHg 71%
06:00 +16°C° 0 mm 2 mps 750 mmHg 69%
07:00 +15°C° 0 mm 2 mps 751 mmHg 67%
08:00 +18°C° 0 mm 3 mps 751 mmHg 58%
09:00 +20°C° 0 mm 3 mps 751 mmHg 48%
10:00 +22°C° 0 mm 3 mps 752 mmHg 39%
11:00 +24°C° 0 mm 3 mps 751 mmHg 38%
12:00 +25°C° 0 mm 4 mps 750 mmHg 36%
13:00 +26°C° 0 mm 4 mps 750 mmHg 35%
14:00 +25°C° 0 mm 4 mps 749 mmHg 37%
15:00 +24°C° 0 mm 3 mps 749 mmHg 39%
16:00 +24°C° 0 mm 3 mps 749 mmHg 42%
17:00 +21°C° 0 mm 2 mps 749 mmHg 47%
18:00 +19°C° 0 mm 2 mps 749 mmHg 53%
19:00 +18°C° 0 mm 1 mps 750 mmHg 59%
20:00 +18°C° 0 mm 1 mps 750 mmHg 61%
21:00 +16°C° 0 mm 1 mps 751 mmHg 62%
22:00 +16°C° 0 mm 1 mps 751 mmHg 63%
23:00 +16°C° 0 mm 1 mps 751 mmHg 64%

11 August, Tuesday

Time Temperature Precipitation Wind Pressure Humidity
00:00 +15°C° 0 mm 1 mps 751 mmHg 65%
01:00 +15°C° 0 mm 1 mps 751 mmHg 66%
02:00 +15°C° 0 mm 1 mps 750 mmHg 67%
03:00 +15°C° 0 mm 1 mps 750 mmHg 68%
04:00 +15°C° 0 mm 1 mps 750 mmHg 69%
05:00 +15°C° 0 mm 1 mps 751 mmHg 69%
06:00 +15°C° 0 mm 1 mps 751 mmHg 70%
07:00 +15°C° 0 mm 1 mps 751 mmHg 71%
08:00 +18°C° 0 mm 1 mps 751 mmHg 65%
09:00 +21°C° 0 mm 1 mps 752 mmHg 59%
10:00 +24°C° 0 mm 1 mps 752 mmHg 52%
11:00 +24°C° 0 mm 1 mps 751 mmHg 51%
12:00 +25°C° 0 mm 2 mps 750 mmHg 51%
13:00 +25°C° 0 mm 2 mps 750 mmHg 50%
14:00 +25°C° 0 mm 2 mps 749 mmHg 52%
15:00 +24°C° 0 mm 2 mps 749 mmHg 54%
16:00 +24°C° 0 mm 3 mps 749 mmHg 56%
17:00 +21°C° 0 mm 2 mps 749 mmHg 62%
18:00 +20°C° 0 mm 2 mps 749 mmHg 69%
19:00 +19°C° 0 mm 1 mps 750 mmHg 75%
20:00 +19°C° 0 mm 1 mps 750 mmHg 77%
21:00 +18°C° 0 mm 1 mps 751 mmHg 79%
22:00 +18°C° 0 mm 1 mps 752 mmHg 81%
23:00 +18°C° 0 mm 1 mps 752 mmHg 82%

12 August, Wednesday

Time Temperature Precipitation Wind Pressure Humidity
00:00 +16°C° 0 mm 1 mps 751 mmHg 84%
01:00 +16°C° 0 mm 1 mps 751 mmHg 86%
02:00 +16°C° 0 mm 1 mps 751 mmHg 87%
03:00 +16°C° 0 mm 1 mps 751 mmHg 89%
04:00 +15°C° 0 mm 1 mps 750 mmHg 90%
05:00 +15°C° 0 mm 1 mps 751 mmHg 90%
06:00 +16°C° 0 mm 1 mps 751 mmHg 90%
07:00 +16°C° 0 mm 1 mps 752 mmHg 90%
08:00 +19°C° 0 mm 1 mps 752 mmHg 80%
09:00 +22°C° 0 mm 1 mps 752 mmHg 70%
10:00 +25°C° 0 mm 1 mps 753 mmHg 60%
11:00 +25°C° 0 mm 1 mps 752 mmHg 59%
12:00 +26°C° 0 mm 2 mps 751 mmHg 58%
13:00 +26°C° 0 mm 2 mps 751 mmHg 58%
14:00 +26°C° 0 mm 2 mps 750 mmHg 60%
15:00 +25°C° 0 mm 2 mps 750 mmHg 63%
16:00 +25°C° 0 mm 2 mps 749 mmHg 66%
17:00 +23°C° 0 mm 2 mps 750 mmHg 71%
18:00 +21°C° 0 mm 2 mps 750 mmHg 77%
19:00 +20°C° 0 mm 2 mps 751 mmHg 83%
20:00 +20°C° 0 mm 2 mps 751 mmHg 82%
21:00 +20°C° 0 mm 2 mps 752 mmHg 81%
22:00 +20°C° 0 mm 2 mps 752 mmHg 80%
23:00 +20°C° 0 mm 2 mps 752 mmHg 80%

13 August, Thursday

Time Temperature Precipitation Wind Pressure Humidity
00:00 +21°C° 0 mm 1 mps 752 mmHg 80%
01:00 +21°C° 0 mm 1 mps 752 mmHg 80%
02:00 +21°C° 0 mm 1 mps 752 mmHg 80%
03:00 +21°C° 0 mm 1 mps 751 mmHg 81%
04:00 +21°C° 0 mm 1 mps 751 mmHg 81%
05:00 +20°C° 0 mm 1 mps 752 mmHg 83%
06:00 +20°C° 0 mm 1 mps 752 mmHg 86%
07:00 +19°C° 0 mm 1 mps 753 mmHg 88%
08:00 +20°C° 0 mm 2 mps 753 mmHg 79%
09:00 +23°C° 0 mm 2 mps 753 mmHg 71%
10:00 +25°C° 0 mm 3 mps 753 mmHg 62%
11:00 +25°C° 0 mm 3 mps 753 mmHg 62%
12:00 +25°C° 0 mm 3 mps 752 mmHg 61%
13:00 +26°C° 0 mm 4 mps 751 mmHg 61%
14:00 +25°C° 0 mm 4 mps 751 mmHg 62%
15:00 +25°C° 0 mm 3 mps 750 mmHg 64%
16:00 +24°C° 0 mm 3 mps 750 mmHg 66%
17:00 +22°C° 0 mm 3 mps 750 mmHg 72%
18:00 +20°C° 0 mm 3 mps 751 mmHg 78%
19:00 +18°C° 0 mm 2 mps 751 mmHg 84%
20:00 +18°C° 0 mm 2 mps 752 mmHg 85%
21:00 +17°C° 0 mm 2 mps 752 mmHg 87%
22:00 +17°C° 0 mm 2 mps 753 mmHg 89%
23:00 +17°C° 0 mm 2 mps 752 mmHg 89%
Show more